• In Hungary
  • List of Countries
  • For 7 days
  • Water Temperature
  • Satellite Maps
  • Weather Map
  • News
  • Weather Widgets
  • user-avatar
    Login

    Hourly Weather Eisenach

    Today, 18 December, Monday

    Time Temperature Precipitation Wind Pressure Humidity
    00:00 -2°C° 0 mm 2 mps 746 mmHg 92%
    01:00 -2°C° 0 mm 2 mps 745 mmHg 91%
    02:00 -1°C° 0 mm 2 mps 745 mmHg 91%
    03:00 -1°C° 0 mm 3 mps 745 mmHg 90%
    04:00 -1°C° 0 mm 3 mps 744 mmHg 89%
    05:00 -1°C° 0.1 mm 3 mps 744 mmHg 89%
    06:00 -1°C° 0.1 mm 3 mps 744 mmHg 89%
    07:00 -2°C° 0 mm 3 mps 744 mmHg 90%
    08:00 -1°C° 0 mm 3 mps 744 mmHg 88%
    09:00 -1°C° 0 mm 2 mps 745 mmHg 87%
    10:00 -1°C° 0 mm 2 mps 745 mmHg 85%
    11:00 +1°C° 0 mm 2 mps 746 mmHg 83%
    12:00 +1°C° 0 mm 2 mps 746 mmHg 81%
    13:00 +2°C° 0 mm 2 mps 746 mmHg 78%
    14:00 +2°C° 0 mm 1 mps 747 mmHg 81%
    15:00 +2°C° 0 mm 1 mps 747 mmHg 84%
    16:00 +1°C° 0 mm 1 mps 747 mmHg 88%
    17:00 +1°C° 0 mm 1 mps 748 mmHg 88%
    18:00 0°C° 0 mm 1 mps 748 mmHg 89%
    19:00 0°C° 0 mm 1 mps 749 mmHg 89%
    20:00 0°C° 0 mm 1 mps 749 mmHg 89%
    21:00 0°C° 0 mm 1 mps 749 mmHg 89%
    22:00 0°C° 0 mm 1 mps 750 mmHg 89%
    23:00 0°C° 0 mm 1 mps 750 mmHg 89%

    Tomorrow, 19 December, Tuesday

    Time Temperature Precipitation Wind Pressure Humidity
    00:00 0°C° 0 mm 1 mps 750 mmHg 88%
    01:00 0°C° 0 mm 1 mps 751 mmHg 88%
    02:00 0°C° 0 mm 1 mps 751 mmHg 89%
    03:00 0°C° 0 mm 1 mps 751 mmHg 89%
    04:00 0°C° 0 mm 1 mps 751 mmHg 90%
    05:00 0°C° 0 mm 1 mps 752 mmHg 91%
    06:00 0°C° 0 mm 1 mps 752 mmHg 91%
    07:00 0°C° 0 mm 1 mps 752 mmHg 92%
    08:00 +1°C° 0 mm 1 mps 753 mmHg 91%
    09:00 +1°C° 0 mm 1 mps 753 mmHg 90%
    10:00 +2°C° 0 mm 1 mps 753 mmHg 89%
    11:00 +1°C° 0 mm 2 mps 753 mmHg 88%
    12:00 +2°C° 0 mm 2 mps 753 mmHg 88%
    13:00 +2°C° 0 mm 2 mps 753 mmHg 87%
    14:00 +2°C° 0.3 mm 2 mps 753 mmHg 89%
    15:00 +2°C° 0.3 mm 2 mps 753 mmHg 91%
    16:00 +2°C° 0.3 mm 2 mps 753 mmHg 94%
    17:00 +2°C° 0.4 mm 2 mps 753 mmHg 94%
    18:00 +2°C° 0.4 mm 2 mps 753 mmHg 95%
    19:00 +2°C° 0.4 mm 2 mps 753 mmHg 95%
    20:00 +2°C° 0.5 mm 2 mps 752 mmHg 95%
    21:00 +2°C° 0.5 mm 2 mps 752 mmHg 96%
    22:00 +2°C° 0.5 mm 2 mps 752 mmHg 96%
    23:00 +2°C° 0.6 mm 2 mps 752 mmHg 96%

    Day after tomorrow, 20 December, Wednesday

    Time Temperature Precipitation Wind Pressure Humidity
    00:00 +2°C° 0.6 mm 2 mps 752 mmHg 96%
    01:00 +2°C° 0.6 mm 2 mps 752 mmHg 97%
    02:00 +2°C° 0.8 mm 2 mps 751 mmHg 97%
    03:00 +2°C° 0.8 mm 2 mps 751 mmHg 97%
    04:00 +2°C° 0.8 mm 2 mps 751 mmHg 97%
    05:00 +2°C° 1.1 mm 2 mps 751 mmHg 97%
    06:00 +3°C° 1.1 mm 1 mps 751 mmHg 97%
    07:00 +3°C° 1.1 mm 1 mps 750 mmHg 97%
    08:00 +4°C° 1.2 mm 1 mps 751 mmHg 97%
    09:00 +4°C° 1.2 mm 1 mps 751 mmHg 98%
    10:00 +4°C° 1.2 mm 1 mps 751 mmHg 98%
    11:00 +4°C° 0.9 mm 1 mps 751 mmHg 98%
    12:00 +4°C° 0.9 mm 1 mps 751 mmHg 98%
    13:00 +5°C° 0.9 mm 1 mps 750 mmHg 98%
    14:00 +5°C° 0.6 mm 1 mps 750 mmHg 98%
    15:00 +5°C° 0.6 mm 1 mps 751 mmHg 98%
    16:00 +5°C° 0.6 mm 1 mps 751 mmHg 98%
    17:00 +5°C° 0.4 mm 1 mps 751 mmHg 98%
    18:00 +5°C° 0.4 mm 1 mps 751 mmHg 98%
    19:00 +5°C° 0.4 mm 1 mps 751 mmHg 98%
    20:00 +5°C° 0.1 mm 1 mps 751 mmHg 98%
    21:00 +6°C° 0.1 mm 1 mps 751 mmHg 98%
    22:00 +6°C° 0.1 mm 1 mps 752 mmHg 98%
    23:00 +6°C° 0.1 mm 1 mps 752 mmHg 98%

    21 December, Thursday

    Time Temperature Precipitation Wind Pressure Humidity
    00:00 +6°C° 0.1 mm 1 mps 751 mmHg 98%
    01:00 +6°C° 0.1 mm 1 mps 751 mmHg 98%
    02:00 +5°C° 0 mm 2 mps 751 mmHg 98%
    03:00 +5°C° 0 mm 2 mps 751 mmHg 98%
    04:00 +5°C° 0 mm 2 mps 751 mmHg 98%
    05:00 +5°C° 0.2 mm 2 mps 751 mmHg 98%
    06:00 +5°C° 0.2 mm 2 mps 750 mmHg 98%
    07:00 +6°C° 0.2 mm 2 mps 750 mmHg 97%
    08:00 +5°C° 0.4 mm 3 mps 750 mmHg 97%
    09:00 +5°C° 0.4 mm 3 mps 750 mmHg 97%
    10:00 +5°C° 0.4 mm 3 mps 750 mmHg 97%
    11:00 +5°C° 0.6 mm 3 mps 750 mmHg 97%
    12:00 +6°C° 0.6 mm 2 mps 750 mmHg 97%
    13:00 +7°C° 0.6 mm 2 mps 750 mmHg 97%
    14:00 +6°C° 0.4 mm 2 mps 750 mmHg 97%
    15:00 +6°C° 0.4 mm 2 mps 750 mmHg 97%
    16:00 +7°C° 0.4 mm 1 mps 750 mmHg 97%
    17:00 +7°C° 0.1 mm 1 mps 750 mmHg 97%
    18:00 +6°C° 0.1 mm 1 mps 750 mmHg 97%
    19:00 +6°C° 0.1 mm 1 mps 751 mmHg 97%
    20:00 +5°C° 0 mm 1 mps 751 mmHg 96%
    21:00 +5°C° 0 mm 1 mps 751 mmHg 96%
    22:00 +4°C° 0 mm 1 mps 752 mmHg 96%
    23:00 +4°C° 0 mm 1 mps 752 mmHg 95%

    22 December, Friday

    Time Temperature Precipitation Wind Pressure Humidity
    00:00 +3°C° 0 mm 1 mps 752 mmHg 95%
    01:00 +2°C° 0 mm 2 mps 752 mmHg 95%
    02:00 +2°C° 0 mm 2 mps 752 mmHg 94%
    03:00 +2°C° 0 mm 2 mps 752 mmHg 94%
    04:00 +1°C° 0 mm 2 mps 752 mmHg 94%
    05:00 +1°C° 0 mm 2 mps 752 mmHg 93%
    06:00 +1°C° 0 mm 2 mps 752 mmHg 93%
    07:00 +2°C° 0 mm 2 mps 753 mmHg 93%
    08:00 +2°C° 0 mm 2 mps 753 mmHg 93%
    09:00 +3°C° 0 mm 2 mps 753 mmHg 92%
    10:00 +3°C° 0 mm 2 mps 754 mmHg 92%
    11:00 +2°C° 0 mm 3 mps 754 mmHg 90%
    12:00 +3°C° 0 mm 3 mps 753 mmHg 88%
    13:00 +3°C° 0 mm 3 mps 753 mmHg 86%
    14:00 +3°C° 0 mm 3 mps 753 mmHg 87%
    15:00 +2°C° 0 mm 3 mps 753 mmHg 89%
    16:00 +3°C° 0 mm 2 mps 753 mmHg 91%
    17:00 +2°C° 0 mm 2 mps 753 mmHg 91%
    18:00 +2°C° 0 mm 2 mps 753 mmHg 92%
    19:00 +2°C° 0 mm 2 mps 753 mmHg 93%
    20:00 +1°C° 0 mm 3 mps 753 mmHg 93%
    21:00 +1°C° 0 mm 3 mps 753 mmHg 93%
    22:00 +1°C° 0 mm 3 mps 753 mmHg 93%
    23:00 +1°C° 0 mm 3 mps 752 mmHg 93%

    23 December, Saturday

    Time Temperature Precipitation Wind Pressure Humidity
    00:00 0°C° 0 mm 4 mps 752 mmHg 92%
    01:00 0°C° 0 mm 4 mps 752 mmHg 91%
    02:00 0°C° 0.1 mm 4 mps 752 mmHg 91%
    03:00 +1°C° 0.1 mm 4 mps 751 mmHg 91%
    04:00 +1°C° 0.1 mm 4 mps 751 mmHg 91%
    05:00 +1°C° 0.1 mm 4 mps 751 mmHg 91%
    06:00 +1°C° 0.1 mm 4 mps 751 mmHg 92%
    07:00 +3°C° 0.1 mm 4 mps 751 mmHg 92%
    08:00 +3°C° 0.1 mm 3 mps 751 mmHg 92%
    09:00 +3°C° 0.1 mm 3 mps 751 mmHg 92%
    10:00 +3°C° 0.1 mm 3 mps 752 mmHg 92%
    11:00 +3°C° 0 mm 3 mps 752 mmHg 90%
    12:00 +3°C° 0 mm 3 mps 751 mmHg 89%
    13:00 +4°C° 0 mm 3 mps 751 mmHg 87%
    14:00 +3°C° 0 mm 3 mps 751 mmHg 88%
    15:00 +3°C° 0 mm 3 mps 751 mmHg 89%
    16:00 +4°C° 0 mm 2 mps 751 mmHg 91%
    17:00 +4°C° 0 mm 2 mps 751 mmHg 92%
    18:00 +4°C° 0 mm 2 mps 751 mmHg 93%
    19:00 +3°C° 0 mm 2 mps 751 mmHg 95%
    20:00 +3°C° 0 mm 3 mps 751 mmHg 95%
    21:00 +3°C° 0 mm 3 mps 750 mmHg 95%
    22:00 +3°C° 0 mm 3 mps 750 mmHg 95%
    23:00 +4°C° 0 mm 3 mps 750 mmHg 95%
    Show more